{"data":{"norad_id":66643,"intl_designator":"2025-271AC","name":"STARLINK-35918","alt_names":[],"object_type":"PAYLOAD","status":"ACTIVE","operator":null,"country":"US","launch_date":"2025-11-23","launch_site_code":"AFWTR","launch_vehicle":null,"mission":null,"orbit_class":"UNKNOWN","rcs_meters":null,"size_class":null,"mass_kg":null,"dimensions":null,"purposes":["comms"],"wikipedia_slug":null,"has_3d_model":false,"image_url":null,"decayed_at":null,"tle_current":{"epoch":"2026-05-25T03:11:46.155840Z","epoch_age_seconds":63624,"freshness":"FRESH","line1":"1 66643U 25271AC  26145.13317310  .00028134  00000+0  84057-3 0  9993","line2":"2 66643  53.1593 143.2179 0000925  60.0846 300.0249 15.34403701 29298","mean_motion":15.34403701,"eccentricity":9.25e-5,"inclination_deg":53.1593,"raan_deg":143.2179,"arg_perigee_deg":60.0846,"mean_anomaly_deg":300.0249,"bstar":0.00084057,"rev_number":2929,"period_min":93.847531719425,"perigee_km":462.05946337256,"apogee_km":463.32501678197,"semimajor_km":6840.8292400773,"source":"CELESTRAK","updated_at":"2026-05-25T13:38:21.299716Z"}}}